This is the latest recevied weather packets stored in our database for station/object NO3U. If no packets are shown the sender has not sent any weather packets the latest 10 day(s).
| Time | Temp. | Humidity | Pressure | Rain* | Wind** | Luminosity | Snow |
|---|---|---|---|---|---|---|---|
| 1777743444 | 5.56° C | 84% | 1017.3 hPa | 0 mm | - | 103 W/m² | - |
| 1777743141 | 5° C | 87% | 1017 hPa | 0 mm | - | 122 W/m² | - |
| 1777742840 | 5° C | 86% | 1017 hPa | 0 mm | - | 84 W/m² | - |
| 1777742535 | 5.56° C | 84% | 1017 hPa | 0 mm | - | 75 W/m² | - |
| 1777742231 | 5.56° C | 85% | 1016.9 hPa | 0 mm | - | 167 W/m² | - |
| 1777741928 | 5.56° C | 84% | 1017 hPa | 0 mm | - | 205 W/m² | - |
| 1777741624 | 5.56° C | 85% | 1017.2 hPa | 0 mm | - | 191 W/m² | - |
| 1777741316 | 5° C | 86% | 1017.2 hPa | 0 mm | - | 164 W/m² | - |
| 1777741012 | 5° C | 87% | 1017.3 hPa | 0 mm | - | 173 W/m² | - |
| 1777740709 | 5° C | 88% | 1017.1 hPa | 0 mm | - | 139 W/m² | - |
| 1777740405 | 5° C | 88% | 1017.2 hPa | 0 mm | - | 87 W/m² | - |
| 1777740103 | 5.56° C | 89% | 1017.1 hPa | 0 mm | - | 66 W/m² | - |
| 1777739798 | 5.56° C | 86% | 1017 hPa | 0 mm | - | 77 W/m² | - |
| 1777739495 | 5.56° C | 88% | 1017 hPa | 0 mm | - | 167 W/m² | - |
| 1777739192 | 5.56° C | 87% | 1016.9 hPa | 0 mm | - | 245 W/m² | - |
| 1777738890 | 5° C | 89% | 1017 hPa | 0 mm | - | 166 W/m² | - |
| 1777738587 | 5° C | 87% | 1017.1 hPa | 0 mm | - | 129 W/m² | - |
| 1777738284 | 5° C | 87% | 1017.3 hPa | 0 mm | - | 158 W/m² | - |
| 1777737981 | 5.56° C | 90% | 1017 hPa | 0 mm | - | 247 W/m² | - |
| 1777737680 | 5° C | 90% | 1017.2 hPa | 0 mm | - | 187 W/m² | - |
| 1777737378 | 5° C | 92% | 1017.1 hPa | 0 mm | - | 229 W/m² | - |
| 1777737074 | 4.44° C | 92% | 1017.1 hPa | 0 mm | - | 529 W/m² | - |
| 1777736770 | 4.44° C | 92% | 1017.1 hPa | 0 mm | - | 207 W/m² | - |
| 1777736143 | 4.44° C | 93% | 1017 hPa | 0 mm | - | 126 W/m² | - |
| 1777735840 | 4.44° C | 92% | 1016.8 hPa | 0 mm | - | 134 W/m² | - |
* Rain latest hour (hover to see other rain measurements)
** Current wind speed in m/s (hover to see current wind gust speed)